DW9580 Weather Reports


time (UTC)temp
C
wind
direction
speed
KPH
gust
KPH
rain 1hr
cm
rain 24hr
cm
rain mn
cm
humidity
%
barometer
mb
20260510221205 11 336 0.0 0.0 0.00 0.05 0.00 79 1006.0
20260510220705 11 5 0.0 0.0 0.00 0.05 0.00 79 1006.0
20260510215706 11 25 0.0 0.0 0.00 0.05 0.05 79 1006.1
20260510215206 11 32 0.0 0.0 0.00 0.05 0.05 78 1006.1
20260510214705 11 345 0.0 0.0 0.00 0.05 0.05 78 1006.2
20260510214205 12 5 0.0 0.0 0.00 0.05 0.05 77 1006.3
20260510213705 12 17 0.0 0.0 0.00 0.05 0.05 77 1006.3
20260510213205 12 18 0.0 0.0 0.00 0.05 0.05 76 1006.3
20260510212706 12 19 0.0 0.0 0.00 0.05 0.05 75 1006.3
20260510212205 12 9 0.0 0.0 0.00 0.05 0.05 75 1006.4
20260510211705 12 0 0.0 0.0 0.00 0.05 0.05 75 1006.5
20260510211205 12 355 0.0 0.0 0.00 0.05 0.05 75 1006.4
20260510210705 12 355 0.0 0.0 0.00 0.05 0.05 74 1006.4
20260510205704 12 17 0.0 0.0 0.00 0.05 0.05 74 1006.5
20260510205205 13 18 0.0 0.0 0.00 0.05 0.05 73 1006.5
20260510204705 13 351 0.0 0.0 0.00 0.05 0.05 73 1006.6
20260510204205 13 341 0.0 0.0 0.00 0.05 0.05 73 1006.6
20260510203705 13 348 0.0 0.0 0.00 0.05 0.05 73 1006.6
20260510203206 13 5 0.0 0.0 0.00 0.08 0.05 72 1006.6
20260510202731 13 5 0.0 0.0 0.00 0.08 0.05 72 1006.7
20260510202205 13 29 0.0 0.0 0.00 0.08 0.05 72 1006.7
20260510201704 13 15 0.0 0.0 0.00 0.08 0.05 72 1006.7
20260510201205 13 15 0.0 0.0 0.00 0.08 0.05 71 1006.7
20260510200705 13 15 0.0 0.0 0.00 0.08 0.05 71 1006.7
20260510195705 14 5 0.0 0.0 0.00 0.08 0.05 70 1006.5
20260510195205 14 0 0.0 0.0 0.00 0.08 0.05 70 1006.4
20260510194706 14 5 0.0 0.0 0.00 0.08 0.05 69 1006.2
20260510194205 14 0 0.0 0.0 0.00 0.08 0.05 69 1006.3
20260510193705 15 5 0.0 0.0 0.00 0.08 0.05 68 1006.2
20260510193206 15 9 0.0 0.0 0.00 0.08 0.05 68 1006.3
20260510192705 15 19 0.0 0.0 0.00 0.08 0.05 67 1006.3
20260510192206 15 36 0.0 0.0 0.00 0.08 0.05 66 1006.3
20260510191205 15 5 0.0 0.0 0.00 0.08 0.05 65 1006.3
20260510190705 15 355 0.0 0.0 0.00 0.08 0.05 65 1006.2
20260510190206 16 0 0.0 0.0 0.00 0.08 0.05 64 1006.2
20260510185705 16 355 0.0 0.0 0.00 0.08 0.05 64 1006.2
20260510184705 16 13 0.0 0.0 0.03 0.08 0.05 64 1006.2
20260510183705 16 17 0.0 0.0 0.03 0.08 0.05 63 1006.2
20260510183205 16 19 0.0 0.0 0.03 0.08 0.05 62 1006.4
20260510182705 16 21 0.0 0.0 0.03 0.08 0.05 62 1006.4
20260510182205 16 13 0.0 0.0 0.03 0.08 0.05 62 1006.4
20260510181706 16 14 0.0 0.0 0.03 0.08 0.05 62 1006.4
20260510181205 16 15 0.0 0.0 0.03 0.08 0.05 62 1006.5
20260510180705 16 5 0.0 0.0 0.03 0.08 0.05 62 1006.5
20260510180205 16 11 0.0 0.0 0.03 0.08 0.05 61 1006.5
20260510175705 16 9 0.0 0.0 0.03 0.08 0.05 61 1006.6
20260510175206 16 17 0.0 0.0 0.00 0.05 0.05 60 1006.6
20260510174705 16 5 0.0 0.0 0.00 0.05 0.05 61 1006.6
20260510174205 17 0 0.0 0.0 0.00 0.05 0.05 61 1006.7
20260510173705 17 355 0.0 0.0 0.00 0.05 0.05 61 1006.8
20260510173205 17 349 0.0 0.0 0.00 0.05 0.05 61 1006.8
20260510172706 17 355 0.0 0.0 0.00 0.05 0.05 60 1006.8
20260510171706 17 35 0.0 0.0 0.00 0.05 0.05 60 1007.1
20260510171205 17 34 0.0 0.0 0.00 0.05 0.05 60 1007.1
20260510170706 17 33 0.0 0.0 0.00 0.05 0.05 60 1007.2
20260510170205 17 33 0.0 0.0 0.00 0.05 0.05 60 1007.3
20260510165205 17 32 0.0 0.0 0.00 0.05 0.05 58 1007.3
20260510164705 17 28 0.0 0.0 0.00 0.05 0.05 57 1007.3
20260510164205 17 24 0.0 3.2 0.00 0.05 0.05 57 1007.2
20260510163705 17 26 0.0 6.4 0.00 0.05 0.05 56 1007.2
20260510163205 17 55 1.6 8.0 0.00 0.05 0.05 56 1007.3
20260510162706 18 55 1.6 11.3 0.00 0.05 0.05 56 1007.4
20260510162206 18 23 3.2 11.3 0.00 0.05 0.05 56 1007.4
20260510161705 18 24 3.2 11.3 0.00 0.05 0.05 56 1007.4
20260510161206 18 24 3.2 12.9 0.00 0.05 0.05 56 1007.4
20260510160706 18 22 1.6 12.9 0.00 0.05 0.05 55 1007.4
20260510160206 18 9 3.2 14.5 0.00 0.05 0.05 54 1007.4
20260510155705 18 0 4.8 14.5 0.00 0.05 0.05 55 1007.5
20260510155205 18 0 4.8 14.5 0.00 0.05 0.05 55 1007.5
20260510154705 18 14 3.2 12.9 0.00 0.05 0.05 56 1007.5
20260510154206 18 5 3.2 16.1 0.00 0.05 0.05 55 1007.6
20260510153705 18 22 6.4 16.1 0.00 0.05 0.05 56 1007.7
20260510152705 18 10 3.2 12.9 0.00 0.05 0.05 57 1007.7
20260510152205 18 64 3.2 12.9 0.00 0.05 0.05 57 1007.8
20260510151705 18 54 4.8 12.9 0.00 0.05 0.05 57 1007.9
20260510151205 18 17 4.8 14.5 0.00 0.05 0.05 56 1008.0
20260510150205 18 64 4.8 14.5 0.00 0.05 0.05 57 1008.2
20260510145706 18 10 1.6 14.5 0.00 0.05 0.05 56 1008.2
20260510145205 18 13 1.6 14.5 0.00 0.05 0.05 56 1008.3
20260510144705 18 26 4.8 14.5 0.00 0.05 0.05 56 1008.4
20260510144205 18 13 4.8 14.5 0.00 0.05 0.05 57 1008.4
20260510143705 18 94 4.8 12.9 0.00 0.05 0.05 57 1008.5
20260510143205 18 65 3.2 14.5 0.00 0.05 0.05 57 1008.5
20260510142705 18 45 4.8 17.7 0.00 0.05 0.05 57 1008.7
20260510142222 18 57 4.8 17.7 0.00 0.08 0.05 58 1008.7
20260510141705 18 49 6.4 17.7 0.00 0.08 0.05 58 1008.7
20260510141205 18 355 4.8 16.1 0.00 0.08 0.05 56 1008.7
20260510140705 18 10 4.8 16.1 0.00 0.08 0.05 56 1008.8
20260510135705 18 93 3.2 11.3 0.03 0.08 0.05 57 1009.1
20260510135205 18 26 3.2 14.5 0.03 0.08 0.05 56 1009.2
20260510134705 18 37 4.8 14.5 0.03 0.08 0.05 56 1009.3
20260510134205 18 19 4.8 14.5 0.03 0.08 0.05 56 1009.3
20260510133720 18 0 3.2 14.5 0.03 0.08 0.05 54 1009.4
20260510132205 18 5 3.2 14.5 0.03 0.08 0.05 55 1009.4
20260510131723 18 5 4.8 14.5 0.03 0.08 0.05 56 1009.5
20260510131205 18 5 3.2 12.9 0.03 0.08 0.05 57 1009.6
20260510130706 18 13 4.8 12.9 0.03 0.08 0.05 58 1009.7
20260510130205 18 14 4.8 12.9 0.00 0.05 0.03 57 1009.8
20260510125205 18 33 4.8 17.7 0.00 0.05 0.03 58 1010.0
20260510124705 18 31 4.8 17.7 0.00 0.05 0.03 58 1010.2
20260510124205 18 41 3.2 16.1 0.00 0.05 0.03 58 1010.1
20260510123205 18 49 6.4 16.1 0.00 0.08 0.03 57 1010.2
20260510122705 18 9 4.8 16.1 0.00 0.08 0.03 55 1010.3
20260510122205 18 37 4.8 16.1 0.00 0.08 0.03 56 1010.4
20260510121206 18 42 3.2 11.3 0.00 0.08 0.03 58 1010.5
20260510120705 18 35 4.8 11.3 0.00 0.08 0.03 57 1010.6
20260510120205 17 53 3.2 17.7 0.00 0.08 0.03 59 1010.6
20260510115705 17 34 3.2 17.7 0.00 0.08 0.03 59 1010.7
20260510115206 17 29 3.2 17.7 0.00 0.08 0.03 58 1010.7
20260510114705 17 112 3.2 14.5 0.00 0.08 0.03 57 1010.8
20260510114205 17 344 3.2 16.1 0.00 0.08 0.03 57 1010.9
20260510113205 17 9 6.4 14.5 0.00 0.08 0.03 58 1011.0
20260510112205 17 0 4.8 16.1 0.00 0.08 0.03 59 1011.0
20260510111704 17 18 4.8 16.1 0.00 0.08 0.03 58 1011.1
20260510111206 17 355 1.6 16.1 0.00 0.08 0.03 60 1011.1
20260510110705 17 355 0.0 0.0 0.00 0.08 0.03 59 1011.1
20260510110205 17 0 0.0 0.0 0.00 0.08 0.03 60 1011.1
20260510105705 16 13 0.0 0.0 0.00 0.08 0.03 60 1011.1
20260510105205 16 5 0.0 0.0 0.00 0.08 0.03 59 1011.3
20260510104705 17 0 0.0 0.0 0.00 0.08 0.03 59 1011.3
20260510104205 17 10 0.0 0.0 0.00 0.08 0.03 60 1011.4
20260510103205 16 10 0.0 0.0 0.00 0.08 0.03 61 1011.4
20260510102704 16 355 0.0 0.0 0.00 0.08 0.03 61 1011.5
20260510102206 16 38 0.0 0.0 0.00 0.08 0.03 64 1011.5
20260510101206 16 34 0.0 0.0 0.00 0.08 0.03 66 1011.6
20260510100706 16 38 0.0 0.0 0.00 0.08 0.03 65 1011.6
20260510100205 16 38 0.0 0.0 0.00 0.08 0.03 66 1011.6
20260510095705 16 38 0.0 0.0 0.00 0.08 0.03 65 1011.7
20260510095205 16 40 0.0 0.0 0.00 0.08 0.03 65 1011.7
20260510094705 16 40 0.0 0.0 0.00 0.08 0.03 66 1011.8
20260510094206 15 44 0.0 0.0 0.00 0.08 0.03 67 1011.8
20260510093707 15 44 0.0 0.0 0.00 0.08 0.03 67 1011.9
20260510093205 15 9 0.0 0.0 0.00 0.08 0.03 68 1011.9
20260510092709 15 78 0.0 0.0 0.00 0.08 0.03 68 1012.0
20260510092205 15 10 0.0 0.0 0.00 0.08 0.03 68 1012.1
20260510091705 15 0 0.0 0.0 0.00 0.08 0.03 69 1012.1
20260510091205 15 0 0.0 0.0 0.00 0.08 0.03 71 1012.2
20260510090706 15 351 0.0 0.0 0.00 0.08 0.03 71 1012.1
20260510090205 15 35 0.0 0.0 0.00 0.08 0.03 73 1012.2
20260510085705 14 35 0.0 0.0 0.00 0.08 0.03 73 1012.2
20260510085206 14 41 0.0 0.0 0.00 0.08 0.03 75 1012.2
20260510084705 14 41 0.0 0.0 0.00 0.08 0.03 75 1012.2
20260510084208 14 43 0.0 0.0 0.00 0.10 0.03 75 1012.2
20260510083708 14 43 0.0 0.0 0.00 0.10 0.03 75 1012.3
20260510083205 14 43 0.0 0.0 0.00 0.10 0.03 75 1012.4
20260510082205 13 39 0.0 0.0 0.00 0.10 0.03 76 1012.5
20260510080705 13 42 0.0 8.0 0.00 0.10 0.03 78 1012.5
20260510075705 12 42 3.2 11.3 0.00 0.10 0.03 79 1012.4
20260510075206 12 42 4.8 11.3 0.00 0.10 0.03 79 1012.4
20260510074206 12 66 3.2 6.4 0.00 0.10 0.03 79 1012.4
20260510073710 12 71 1.6 8.0 0.00 0.10 0.03 79 1012.4
20260510073206 12 71 1.6 8.0 0.00 0.10 0.03 80 1012.5
20260510072206 12 71 1.6 8.0 0.00 0.10 0.03 80 1012.6
20260510071704 11 71 1.6 8.0 0.00 0.10 0.03 80 1012.5
20260510071205 11 71 1.6 8.0 0.00 0.10 0.03 80 1012.5
20260510070205 11 72 1.6 6.4 0.00 0.10 0.03 80 1012.5
20260510065704 11 72 3.2 6.4 0.00 0.10 0.03 80 1012.5
20260510065205 11 72 3.2 6.4 0.00 0.10 0.03 80 1012.5
20260510064706 11 72 1.6 6.4 0.00 0.10 0.03 80 1012.5
20260510064206 11 73 0.0 4.8 0.00 0.10 0.03 80 1012.4
20260510063705 11 73 0.0 4.8 0.00 0.10 0.03 80 1012.4
20260510063205 11 73 0.0 4.8 0.00 0.13 0.03 80 1012.3
20260510062706 11 73 0.0 6.4 0.00 0.13 0.03 80 1012.4
20260510061705 10 73 1.6 6.4 0.00 0.13 0.03 81 1012.3
20260510061208 10 73 1.6 6.4 0.00 0.13 0.03 81 1012.3
20260510060707 10 73 1.6 6.4 0.00 0.13 0.03 81 1012.3
20260510060205 10 74 1.6 6.4 0.00 0.13 0.03 81 1012.3
20260510055704 10 74 1.6 4.8 0.00 0.13 0.03 81 1012.2
20260510055205 10 74 1.6 6.4 0.00 0.13 0.03 82 1012.2
20260510054705 10 74 1.6 6.4 0.00 0.13 0.03 82 1012.2
20260510054205 10 74 1.6 3.2 0.00 0.13 0.03 82 1012.2
20260510053705 10 74 0.0 3.2 0.00 0.13 0.03 82 1012.3
20260510052706 9 74 0.0 4.8 0.00 0.13 0.03 82 1012.3
20260510052206 9 74 0.0 4.8 0.00 0.13 0.03 82 1012.3
20260510051205 9 74 0.0 1.6 0.00 0.13 0.03 81 1012.2
20260510050705 9 5 0.0 0.0 0.00 0.13 0.03 81 1012.3
20260510045705 9 5 0.0 0.0 0.00 0.13 0.03 82 1012.2
20260510045205 9 5 0.0 0.0 0.00 0.13 0.03 82 1012.3
20260510044706 9 5 0.0 0.0 0.00 0.13 0.03 82 1012.3
20260510044205 9 5 0.0 0.0 0.00 0.13 0.03 82 1012.3
20260510042705 9 5 0.0 1.6 0.00 0.13 0.03 81 1012.4
20260510042205 9 5 0.0 1.6 0.03 0.13 0.03 81 1012.3
20260510041706 9 5 0.0 1.6 0.03 0.13 0.03 81 1012.4
20260510040705 9 5 0.0 0.0 0.03 0.13 0.03 82 1012.4
20260510040206 9 5 0.0 0.0 0.03 0.13 0.03 82 1012.5
20260510035205 9 5 0.0 0.0 0.03 0.13 0.03 82 1012.4
20260510034705 9 5 0.0 0.0 0.03 0.13 0.03 82 1012.4
20260510034206 9 5 0.0 0.0 0.03 0.13 0.03 82 1012.5
20260510033706 9 5 0.0 0.0 0.03 0.13 0.03 82 1012.5
20260510033205 9 5 0.0 0.0 0.03 0.13 0.03 82 1012.5
20260510031207 9 5 0.0 0.0 0.00 0.10 0.00 82 1012.4
20260510030705 9 5 0.0 0.0 0.00 0.10 0.00 82 1012.5
20260510025206 9 5 0.0 0.0 0.00 0.10 0.00 82 1012.5
20260510024705 9 5 0.0 1.6 0.00 0.10 0.00 82 1012.6
20260510024205 9 5 0.0 3.2 0.00 0.10 0.00 82 1012.6
20260510022705 9 5 0.0 3.2 0.00 0.10 0.00 82 1012.7
20260510022205 9 5 0.0 0.0 0.00 0.10 0.00 82 1012.7
20260510021205 9 5 0.0 0.0 0.00 0.10 0.00 82 1012.6
20260510020728 9 5 0.0 0.0 0.00 0.10 0.00 82 1012.7
20260510020206 9 5 0.0 0.0 0.00 0.10 0.00 82 1012.7
20260510015705 9 5 0.0 0.0 0.00 0.10 0.00 82 1012.7
20260510015206 9 5 0.0 0.0 0.00 0.10 0.00 81 1012.9
20260510014705 9 5 0.0 0.0 0.00 0.10 0.00 81 1012.9
20260510014207 9 5 0.0 0.0 0.00 0.10 0.00 81 1012.9
20260510013705 9 5 0.0 0.0 0.00 0.10 0.00 81 1012.9
20260510012205 9 5 0.0 0.0 0.00 0.10 0.00 81 1013.0
20260510011705 10 5 0.0 0.0 0.00 0.10 0.00 81 1013.0
20260510011204 10 5 0.0 0.0 0.00 0.10 0.00 81 1013.0
20260510010733 10 5 0.0 0.0 0.00 0.10 0.00 81 1013.1
20260510010205 10 5 0.0 0.0 0.00 0.10 0.00 81 1013.1
20260510005705 10 5 0.0 0.0 0.00 0.10 0.00 81 1013.1
20260510005205 10 5 0.0 0.0 0.00 0.10 0.00 81 1013.0
20260510003205 10 5 0.0 0.0 0.00 0.10 0.00 80 1013.1
20260510002705 10 5 0.0 0.0 0.00 0.10 0.00 80 1013.1
20260510001705 10 5 0.0 0.0 0.00 0.13 0.00 80 1013.2
20260510001205 10 5 0.0 0.0 0.00 0.13 0.00 80 1013.2
20260510000705 10 5 0.0 0.0 0.00 0.13 0.00 79 1013.3
20260510000222 10 5 0.0 0.0 0.00 0.13 0.00 79 1013.3
20260509235705 10 5 0.0 0.0 0.00 0.13 0.00 79 1013.4
20260509235205 10 5 0.0 0.0 0.00 0.13 0.00 78 1013.4
20260509234705 11 5 0.0 0.0 0.00 0.13 0.00 78 1013.5
20260509234205 11 5 0.0 0.0 0.00 0.13 0.00 78 1013.5
20260509233705 11 5 0.0 0.0 0.00 0.13 0.00 78 1013.6
20260509232706 11 5 0.0 0.0 0.00 0.13 0.00 77 1013.6
20260509232205 11 5 0.0 0.0 0.00 0.13 0.00 77 1013.6
20260509231705 11 5 0.0 0.0 0.00 0.13 0.00 76 1013.6
20260509231206 11 5 0.0 0.0 0.00 0.13 0.00 76 1013.6
20260509230705 11 5 0.0 0.0 0.00 0.13 0.00 76 1013.7
20260509225705 12 5 0.0 0.0 0.00 0.13 0.00 75 1013.7
20260509224705 12 5 0.0 0.0 0.00 0.13 0.00 74 1013.8
20260509224208 12 5 0.0 0.0 0.00 0.13 0.00 74 1013.8
20260509223708 12 5 0.0 0.0 0.00 0.13 0.00 74 1013.8
20260509223206 12 5 0.0 0.0 0.00 0.13 0.00 74 1013.8
20260509222705 12 5 0.0 0.0 0.00 0.13 0.00 73 1013.8
20260509222205 12 5 0.0 0.0 0.00 0.13 0.00 72 1013.9